Location: Stockholm
(59.3330°N, 18.0500°E)
Time: 23:04:25
(UTC+02:00)

NOAA 18 - Pass Details

Date: 07 April 2023
Orbit: 838 x 860 km, 98.9° (Epoch: 02 June)

Event Time Altitude Azimuth Distance (km) Brightness Sun altitude
Exits shadow 21:52:24 22° 147° (SSE) 1,817 6.3 -14.9°
Maximum altitude 21:56:08 73° 67° (ENE) 906 5.3 -15.3°
Drops below altitude 10° 22:01:41 10° 344° (NNW) 2,509 8.6 -15.8°
Sets 22:04:04 0° 342° (NNW) 3,447 9.6 -16.0°
